Vertical_Velocity
5 3 1 3 5 2 -2 -4 -3 -1 1 1 -0 -2 -7 4 1 -1 2 -1 -0 4 -2 1 -2 -0 -2 -3 2 1 1 -1 -1 -1 -0 -0 1 -2 1 2 -0 2 -1
4 -10 4 2 -1 4 4 -4 -4 -2 -1 1 2 2 -3 -0 5 -3 -3 -1 -1 -0 -2 -3 -0 -2 -2 -3 -0 1 1 1 -1 1 -1 2 1 0 2 -0 -0 -3 -3
-5 0 0 -3 2 -1 -2 5 -6 -5 -4 -2 -2 -3 -0 -6 4 2 -4 -1 -1 -1 1 -2 -1 -2 2 -6 -0 0 2 2 1 0 1 -0 0 -2 0 -1 0 1 -0
-2 -3 -1 7 -4 -0 -0 0 1 -4 -2 -0 -0 0 2 -2 -10 4 -0 -3 -2 1 2 -1 -2 -0 0 3 -2 -3 -0 -2 -1 -0 -1 1 0 1 1 -0 -1 1 1
1 -7 0 7 -4 3 0 4 -2 -3 0 -2 -4 -1 2 0 -2 -1 1 -1 -3 -2 -0 1 -2 -0 -0 -1 1 -2 -2 -0 -1 0 -1 0 -1 1 0 1 -0 -1 -1
8 -4 1 -6 1 -8 7 1 0 -6 -6 -3 -3 -1 4 -1 1 -2 -3 4 -1 -6 -2 3 -0 -1 -3 -2 2 -0 -1 -1 -2 -2 -1 -0 -0 -0 -1 2 1 0 -1
-8 2 -0 -10 9 -11 -1 -4 2 -11 4 -1 -8 -1 -2 -4 1 3 -0 -2 4 0 -7 -1 3 -1 2 -1 -2 3 1 -0 -2 -1 -1 -1 1 -0 -4 1 0 -0 1
8 2 0 4 1 2 4 -3 1 8 2 -4 13 5 -2 5 0 3 -3 -2 2 2 3 -7 2 1 -1 1 0 -2 3 1 1 -0 0 -1 -2 -1 -1 -0 -0 -1 -0
-8 2 0 -2 5 10 -3 4 5 5 4 5 5 -2 -2 0 -1 -5 5 2 1 3 2 3 -3 3 -0 -1 1 -1 -0 1 -0 0 1 0 -1 -1 -0 1 -0 0 -1
-2 2 3 27 2 -4 -1 32 -13 29 5 48 15 30 2 -2 -3 -8 1 1 3 -1 2 3 1 -1 -1 1 -1 2 -2 -1 0 0 2 2 -1 0 -1 1 0 1 1
1 4 6 5 7 20 2 -1 1 9 2 1 3 9 6 1 -1 -6 -12 3 6 2 2 -11 8 1 -0 2 -1 1 1 -3 -1 0 -1 2 4 1 0 -0 -1 0 2
6 4 9 -3 -1 6 15 4 -1 -1 0 5 14 34 45 13 -5 -10 23 29 10 2 2 -1 -0 6 2 -0 0 -1 -2 -1 -2 -1 -0 1 1 0 1 0 -1 -0 2
3 4 -2 4 -3 -0 -1 17 1 -7 5 -5 3 13 7 1 -11 46 -9 -1 -2 -0 1 -1 -2 4 8 2 -0 1 -2 -2 -1 -1 1 -1 2 2 2 0 -1 1 -0
1 -3 -3 5 2 0 5 10 2 3 -4 5 -2 3 8 15 15 10 -10 10 -5 -5 -1 4 1 6 8 5 1 -2 2 -1 -3 -0 -0 -1 -2 0 1 1 3 1 2
-1 2 -4 -0 6 -2 -0 9 2 5 -1 2 -4 6 -2 2 -14 17 9 -3 -1 -1 -4 -0 -1 2 11 7 1 -3 4 1 1 2 1 -0 0 -2 -1 -1 0 1 -1
-3 -0 -8 -2 1 3 4 -1 5 -3 -2 2 -1 2 -1 1 -6 9 4 -2 -5 -0 -1 -2 -0 -7 5 3 9 2 4 -3 0 1 2 -0 1 0 1 0 -1 -0 1
3 -0 0 -1 -0 5 4 3 -4 -5 1 6 8 -4 7 6 5 3 -4 -3 2 -6 -2 -2 4 4 -2 5 9 6 -2 2 -0 -1 -1 -1 -2 -2 -1 -2 -2 -0 1
-0 3 5 -1 2 0 4 8 2 -4 10 51 3 -5 3 -12 -2 -2 1 2 0 -2 -4 2 2 -1 -4 19 5 1 -1 -2 -1 -3 -0 2 -2 -3 -1 -1 -1 -1 0
-3 1 3 -10 0 1 -13 4 -6 6 6 -5 -1 -4 -3 -10 -5 -0 6 2 8 7 2 -2 3 0 1 5 -3 3 16 5 3 1 -1 -2 -1 -1 -0 -2 -2 -2 0
-2 -1 6 -2 9 5 7 17 2 -2 5 2 -7 -7 -8 -5 -5 7 2 5 3 0 -4 -2 7 2 3 -0 -2 -3 -3 -14 52 -4 2 -1 -2 0 0 -1 -1 -2 1
10 2 -0 14 73 9 105 45 -1 7 0 -4 -7 -11 1 -2 2 2 2 -2 1 1 -1 7 5 1 6 17 2 -10 -7 -4 6 3 0 -0 -1 0 1 3 2 1 1
15 4 -9 3 -2 -3 -1 95 -26 4 0 12 -3 -7 -2 1 0 -7 -4 4 2 3 2 -0 2 3 5 -2 -16 16 28 -3 -16 -11 34 -13 81 -2 -1 1 3 2 -1
12 9 3 -9 -10 -3 -13 7 7 10 -11 -2 -9 1 1 -3 -4 -1 4 4 1 3 1 0 -3 2 -3 -4 2 3 8 0 -2 5 -3 -7 26 -6 -5 0 -0 2 2
-1 1 -1 2 13 14 -2 -4 1 -1 -3 0 3 -5 -7 -8 -3 6 -0 2 4 1 -4 -3 -1 2 4 -0 -4 16 3 3 -2 -0 3 -7 16 18 3 2 -1 3 -0
-0 3 9 6 3 11 21 7 4 -2 -3 5 -1 -1 -0 -0 6 4 3 2 7 -6 -1 1 0 0 0 -0 1 -2 3 -3 -1 8 1 -4 18 4 3 -1 3 3 -1
3 -1 3 1 3 -1 -7 10 -5 3 -3 -5 -7 -6 -4 -4 -1 7 2 3 5 -6 -4 -2 -3 -1 -3 3 -2 3 0 -4 -0 -3 4 8 9 6 -3 3 5 -1 -2
Height
5811 5813 5813 5811 5811 5811 5812 5811 5811 5810 5810 5809 5807 5804 5803 5804 5803 5800 5800 5798 5798 5797 5795 5793 5791 5790 5790 5791 5792 5792 5794 5795 5798 5799 5800 5802 5802 5802 5805 5806 5807 5809 5810
5803 5805 5807 5806 5805 5805 5805 5805 5804 5804 5803 5803 5801 5800 5799 5798 5799 5797 5794 5794 5793 5793 5792 5789 5787 5786 5787 5788 5789 5790 5793 5794 5795 5795 5797 5797 5797 5800 5801 5802 5804 5806 5805
5794 5797 5798 5800 5800 5797 5798 5798 5798 5798 5797 5796 5794 5792 5792 5791 5793 5793 5789 5790 5790 5790 5789 5787 5785 5785 5785 5785 5787 5788 5789 5789 5790 5791 5792 5793 5794 5795 5797 5799 5800 5800 5801
5783 5786 5789 5789 5792 5791 5790 5790 5789 5791 5791 5790 5789 5787 5785 5785 5785 5788 5787 5784 5785 5785 5785 5784 5783 5783 5783 5784 5783 5784 5785 5785 5786 5787 5788 5789 5790 5791 5793 5794 5795 5796 5797
5772 5773 5779 5779 5780 5781 5781 5782 5782 5782 5782 5783 5782 5782 5779 5777 5779 5780 5780 5779 5778 5779 5780 5780 5780 5780 5779 5780 5780 5780 5780 5781 5781 5782 5783 5785 5787 5788 5789 5789 5790 5792 5792
5759 5762 5763 5768 5768 5768 5769 5771 5773 5772 5771 5773 5772 5773 5772 5770 5770 5774 5774 5774 5774 5771 5773 5776 5775 5775 5775 5775 5775 5776 5776 5776 5777 5778 5779 5781 5782 5784 5784 5784 5785 5787 5787
5750 5750 5751 5756 5755 5757 5757 5759 5760 5763 5763 5764 5760 5761 5761 5762 5762 5766 5767 5766 5767 5768 5766 5768 5770 5769 5770 5769 5768 5769 5770 5771 5772 5773 5774 5775 5777 5778 5780 5780 5780 5781 5782
5735 5736 5741 5738 5739 5746 5748 5749 5749 5751 5750 5751 5749 5749 5750 5750 5755 5757 5759 5759 5759 5761 5762 5760 5762 5763 5763 5763 5763 5763 5765 5766 5766 5767 5769 5770 5772 5773 5774 5775 5775 5776 5776
5721 5723 5726 5727 5729 5732 5737 5735 5736 5738 5740 5739 5740 5742 5738 5737 5743 5745 5748 5751 5751 5751 5755 5754 5753 5755 5757 5757 5757 5757 5758 5758 5760 5761 5762 5764 5766 5768 5769 5769 5770 5770 5770
5706 5708 5707 5713 5716 5719 5723 5721 5721 5725 5725 5720 5729 5732 5728 5728 5729 5731 5734 5738 5740 5741 5744 5746 5745 5745 5748 5749 5749 5750 5751 5751 5752 5753 5755 5756 5759 5761 5762 5763 5764 5764 5764
5687 5692 5692 5694 5698 5705 5707 5710 5710 5710 5713 5714 5717 5719 5717 5716 5717 5722 5723 5728 5727 5731 5730 5734 5736 5737 5740 5742 5742 5742 5743 5744 5744 5745 5747 5748 5750 5752 5755 5756 5757 5758 5758
5668 5673 5674 5676 5680 5687 5689 5695 5697 5698 5701 5702 5703 5702 5702 5703 5707 5709 5708 5713 5718 5722 5722 5723 5727 5730 5729 5734 5735 5733 5735 5736 5737 5738 5739 5740 5742 5744 5747 5749 5750 5750 5751
5644 5652 5657 5659 5664 5668 5673 5675 5678 5680 5685 5687 5690 5691 5691 5693 5697 5691 5698 5703 5705 5710 5712 5713 5715 5717 5719 5723 5727 5727 5727 5729 5730 5730 5731 5732 5734 5736 5738 5740 5742 5743 5743
5621 5627 5634 5639 5645 5649 5657 5658 5662 5665 5669 5672 5677 5678 5678 5681 5686 5686 5689 5690 5693 5696 5698 5702 5703 5705 5709 5713 5716 5719 5720 5720 5723 5723 5723 5725 5726 5728 5730 5732 5734 5735 5736
5600 5607 5613 5620 5625 5631 5639 5641 5645 5650 5653 5657 5663 5666 5665 5670 5669 5672 5676 5674 5679 5682 5685 5688 5692 5695 5698 5701 5706 5708 5712 5713 5714 5717 5717 5717 5719 5720 5722 5723 5725 5727 5728
5578 5586 5593 5601 5606 5614 5620 5627 5632 5636 5640 5644 5649 5654 5655 5656 5658 5659 5663 5665 5668 5670 5672 5676 5680 5685 5686 5691 5696 5699 5703 5704 5705 5708 5710 5710 5712 5712 5713 5714 5716 5718 5719
5554 5565 5574 5582 5589 5596 5604 5612 5618 5622 5626 5629 5634 5640 5644 5647 5649 5652 5653 5654 5658 5658 5660 5665 5667 5673 5678 5682 5686 5689 5692 5695 5696 5698 5701 5702 5704 5705 5706 5706 5707 5709 5710
5532 5544 5555 5564 5573 5581 5590 5596 5604 5609 5614 5619 5619 5623 5629 5632 5635 5637 5641 5645 5646 5649 5649 5655 5657 5663 5667 5672 5675 5677 5681 5685 5686 5689 5691 5693 5695 5698 5697 5698 5699 5701 5701
5520 5526 5535 5547 5559 5568 5574 5581 5588 5598 5602 5605 5609 5613 5618 5621 5624 5628 5631 5634 5635 5638 5639 5643 5647 5651 5656 5660 5663 5667 5667 5674 5676 5680 5682 5684 5687 5689 5689 5690 5690 5691 5692
5512 5516 5524 5534 5547 5558 5561 5569 5577 5582 5589 5592 5597 5602 5604 5608 5612 5618 5620 5623 5624 5626 5629 5632 5637 5640 5643 5649 5652 5655 5659 5662 5660 5669 5672 5674 5677 5679 5680 5681 5683 5682 5683
5504 5507 5512 5520 5533 5541 5542 5557 5564 5570 5574 5581 5588 5592 5595 5598 5601 5606 5607 5610 5614 5616 5621 5621 5624 5628 5633 5638 5643 5647 5647 5651 5654 5651 5661 5664 5666 5668 5670 5672 5672 5674 5674
5500 5501 5506 5511 5522 5532 5533 5536 5552 5557 5565 5572 5577 5582 5585 5588 5591 5593 5595 5599 5603 5606 5610 5612 5614 5617 5620 5623 5628 5629 5630 5637 5643 5647 5649 5653 5647 5654 5658 5661 5662 5663 5664
5496 5498 5499 5504 5512 5518 5526 5527 5539 5546 5553 5558 5565 5570 5574 5578 5579 5583 5586 5590 5592 5594 5597 5599 5601 5605 5610 5612 5615 5618 5622 5625 5629 5634 5638 5639 5636 5643 5647 5648 5652 5652 5654
5492 5493 5495 5496 5499 5503 5511 5520 5528 5532 5540 5546 5552 5557 5562 5566 5568 5571 5574 5578 5581 5581 5583 5587 5589 5595 5597 5599 5606 5607 5609 5613 5616 5621 5623 5626 5629 5630 5632 5636 5640 5641 5642
5489 5490 5491 5492 5493 5495 5503 5510 5517 5522 5528 5534 5540 5545 5550 5554 5557 5561 5564 5567 5568 5571 5573 5574 5576 5580 5582 5587 5591 5593 5597 5600 5605 5609 5612 5615 5618 5619 5620 5625 5628 5629 5630
5484 5486 5487 5489 5491 5494 5495 5501 5504 5510 5516 5522 5529 5533 5538 5543 5547 5550 5552 5554 5558 5560 5562 5564 5565 5567 5568 5571 5576 5582 5583 5587 5591 5594 5598 5598 5602 5605 5609 5611 5615 5617 5618